Regional Weather Roundup
Issued by NWS

Home | Current Version | Previous Version | Graphics & Text | Print | Product List | Glossary On
Versions: 1 2 3 4 5 6 7 8 9 10 11 12 13 14 15 16 17 18 19 20 21 22 23 24 25 26 27 28 29 30 31 32 33 34 35 36 37 38 39 40 41 42 43 44 45 46 47 48 49 50
000
ASUS43 KMKX 180411
RWRWI

WISCONSIN REGIONAL WEATHER ROUNDUP
NATIONAL WEATHER SERVICE MILWAUKEE/SULLIVAN WI
1100 PM CDT TUE OCT 17 2017

NOTE: "FAIR" INDICATES FEW OR NO CLOUDS BELOW 12,000 FEET WITH NO
SIGNIFICANT WEATHER AND/OR OBSTRUCTIONS TO VISIBILITY.

WIZ001-002-006>008-014>016-023>028-180500-
NORTHWEST WISCONSIN

CITY           SKY/WX    TMP DP  RH WIND       PRES   REMARKS
SUPERIOR ARPT  CLEAR     45  41  86 CALM      29.84S
ASHLAND        CLEAR     53  41  63 S5        29.88F
HAYWARD        CLEAR     55  43  63 SW6       29.91S
SIREN          CLEAR     55  41  58 S7        29.88F
CUMBERLAND     CLEAR     50  41  71 S8        29.92F
RICE LAKE      CLEAR     52  44  73 SE5       29.94S
CHETEK         CLEAR     51  46  83 CALM      29.93F
LADYSMITH      CLEAR     54  45  73 S6        29.96F
EAU CLAIRE     CLEAR     54  45  71 S3        29.95S
MENOMONIE      CLEAR     50  46  85 E6        29.94S
NEW RICHMOND   CLEAR     53  42  65 S7        29.92S
OSCEOLA        CLEAR     55  42  62 S3        29.93F
$$

WIZ003>005-009-010-017-018-180500-
NORTH CENTRAL WISCONSIN

CITY           SKY/WX    TMP DP  RH WIND       PRES   REMARKS
MANITOWISH WTR CLEAR     49  44  83 S5        29.94F
ARBOR VITAE    CLEAR     53  45  73 S6        29.96S
WOODRUFF       CLEAR     53  45  73 S6        29.96S
RHINELANDER    CLEAR     54  45  71 SW6       29.98F
EAGLE RIVER    CLEAR     53  42  67 CALM      29.96S
LAND O LAKES   CLEAR     50  43  77 CALM      29.98S
PHILLIPS       CLEAR     53  44  73 S6        29.94F
TOMAHAWK       CLEAR     47  42  85 CALM      29.97F
MEDFORD        CLEAR     49  43  79 S7        29.98S
MERRILL        CLEAR     40  40  99 CALM      29.99S
$$

WIZ029-030-035-036-043>047-180500-
CENTRAL WISCONSIN

CITY           SKY/WX    TMP DP  RH WIND       PRES   REMARKS
WAUSAU         CLEAR     53  45  74 S7        29.98F
MOSINEE        CLEAR     50  45  81 S7        30.01S
MARSHFIELD     CLEAR     51  43  74 S7        29.99S
STEVENS POINT  CLEAR     49  45  87 S8        30.02S
WAUPACA        CLEAR     54  46  74 S3        30.03S
WAUTOMA        CLEAR     44  43  96 CALM      30.05S
WISC RAPIDS    CLEAR     51  45  79 S5        30.02S
CAMP DOUGLAS   CLEAR     54  43  66 S5        30.02S
$$

WIZ011>013-019>022-031-037>040-048>050-180500-
NORTHEAST WISCONSIN

CITY           SKY/WX    TMP DP  RH WIND       PRES   REMARKS
ANTIGO         CLEAR     49  44  82 SW6       30.00F
SHAWANO        CLEAR     54  47  77 CALM      30.00S
OCONTO         CLEAR     48  46  92 S3        30.01S
STURGEON BAY   CLEAR     56  47  71 S10       30.02F
GREEN BAY      CLEAR     51  48  89 S5        30.03S
MANITOWOC      CLEAR     59  45  59 SW10      30.05S
APPLETON       CLEAR     57  43  58 SW13      30.02S
CLINTONVILLE   NOT AVBL
OSHKOSH        CLEAR     57  45  64 SW12      30.04S
$$

WIZ032>034-041-042-053>061-180500-
SOUTHWEST WISCONSIN

CITY           SKY/WX    TMP DP  RH WIND       PRES   REMARKS
LA CROSSE      CLEAR     60  46  59 S12       30.00R
SPARTA         CLEAR     50  44  79 CALM      30.02S
VIROQUA        CLEAR     57  45  65 S8        30.04S
BOSCOBEL       CLEAR     51  44  77 CALM      30.05S
PRAIRIE DU CHI CLEAR     60  43  53 S3        30.04F
PLATTEVILLE    CLEAR     53  44  70 S7        30.08F
$$

WIZ056-057-062-063-064-067-068-180500-
SOUTH CENTRAL WISCONSIN

CITY           SKY/WX    TMP DP  RH WIND       PRES   REMARKS
REEDSBURG      CLEAR     56  43  61 CALM      30.05S
BARABOO/DELLS  CLEAR     55  42  61 SW7       30.05F
LONE ROCK      CLEAR     54  44  69 CALM      30.06S
MINERAL POINT  CLEAR     54  43  66 S7        30.08S
MADISON        CLEAR     60  41  49 S8        30.08R
MIDDLETON      CLEAR     59  42  51 SW5       30.08S
WATERTOWN      CLEAR     51  44  76 S6        30.09S
MONROE         CLEAR     52  41  66 S12       30.09F
JANESVILLE     CLEAR     54  41  62 S7        30.10F
$$

WIZ051-052-058>065-066-070>072-180500-
SOUTHEAST WISCONSIN

CITY           SKY/WX    TMP DP  RH WIND       PRES   REMARKS
MILWAUKEE      PTCLDY    59  42  53 SW12      30.11R
WAUKESHA       CLEAR     54  39  58 S7        30.12S
MILWAUKEE/TIMM CLEAR     55  37  50 SW6       30.11S
RACINE         PTCLDY    54  42  64 SW6       30.13S
BURLINGTON     CLEAR     52  43  71 S9        30.11F
KENOSHA        CLEAR     55  41  59 S8        30.12R
FOND DU LAC    CLEAR     60  41  49 SW9       30.06S
SHEBOYGAN      CLEAR     53  46  77 SW10      30.07S
WEST BEND      CLEAR     55  39  54 SW10      30.08S
JUNEAU         CLEAR     53  41  64 S7        30.09S
$$

LSZ147-162-180500-
LAKE SUPERIOR

STATION/POSITION TIME  TEMP    WIND        PRES    WAVE
                       AIR SEA DIR/SP/G            HT/PER
                 (UTC) (F)     (DEG/KT/KT) (MB)    (FT/S)
W MID LAKE BUOY  0350   57 53              1010.8F   1
DEVILS ISLAND    0400   62     190/ 11/ 14 1010.8F
SAXON HARBOR     0330   54     200/  4/  7 1011.5S
$$

LMZ867-665-643>646-180500-
LAKE MICHIGAN

STATION/POSITION TIME  TEMP    WIND        PRES    WAVE
                       AIR SEA DIR/SP/G            HT/PER
                 (UTC) (F)     (DEG/KT/KT) (MB)    (FT/S)
S GREEN BAY BUOY 0200   60 58  180/ 10/ 12 1016.0
N MID LAKE BUOY  0350   60 59  180/ 16/ 17 1016.6F   3/ 6
NORTHPORT PIER   0340   56     160/  3/  6 1015.9S
KEWAUNEE LAKESHO 0348   58     200/  5/  6 1016.1S
SHEBOYGAN LAKESH 0400   59     200/ 11/ 12 1017.8S
PORT WASHINGTON  0340   57     180/  4/  5 1019.6S
MILWAUKEE LAKESH 0350   61     230/  9/ 11   N/A
S MID LAKE BUOY  0350   63 61  210/ 17/ 21 1020.2R   3/ 4
KENOSHA   LAKESH 0400   58     210/  5/  7 1020.0
$$

TC  - TEMPERATURE IN CELSIUS
VSB - VISIBILITY IN STATUTE MILES
WCI - WIND CHILL INDEX
HX  - HEAT INDEX





USA.gov is the U.S. government's official web portal to all federal, state and local government web resources and services.